This demonstration page uses our WeatherBlox Daily Observations layout. Learn more.

Left ArrowRight Arrow

53.62937, 11.41316

Hourly Observations for April 24, 2021

Temp ( °F °C ) Dew Point ( °F °C ) Humidity (%) Winds ( mph kmh ) Pressure ( in mb ) Visibility ( mi km ) Precip ( " mm )
7:50 am 07:50 Mostly Sunny 39 4 37 3 93 93 SW 5 7 30.27 1025 7 11 N/A
8:20 am 08:20 Partly Cloudy 41 5 37 3 87 87 W 5 7 30.27 1025 30 48 N/A
8:50 am 08:50 Mostly Cloudy 41 5 36 2 81 81 NNW 8 13 30.27 1025 30 48 N/A
9:20 am 09:20 Mostly Cloudy 41 5 36 2 81 81 VRB 3 6 30.30 1026 30 48 N/A
9:50 am 09:50 Mostly Cloudy 43 6 37 3 81 81 NNW 7 11 30.30 1026 30 48 N/A
10:20 am 10:20 Mostly Cloudy 43 6 36 2 76 76 NW 6 9 30.30 1026 30 48 N/A
10:50 am 10:50 Partly Cloudy 45 7 36 2 71 71 NW 6 9 30.30 1026 30 48 N/A
11:20 am 11:20 Partly Cloudy 46 8 36 2 66 66 VRB 5 7 30.30 1026 30 48 N/A
11:50 am 11:50 Partly Cloudy 48 9 36 2 62 62 VRB 5 7 30.30 1026 30 48 N/A
12:20 pm 12:20 Partly Cloudy 50 10 34 1 54 54 VRB 5 7 30.30 1026 30 48 N/A
12:50 pm 12:50 Partly Cloudy 52 11 30 -1 44 44 VRB 6 9 30.30 1026 30 48 N/A
1:20 pm 13:20 Mostly Sunny 52 11 25 -4 35 35 VRB 5 7 30.30 1026 7 11 N/A
1:50 pm 13:50 Mostly Sunny 52 11 28 -2 41 41 VRB 6 9 30.30 1026 7 11 N/A
2:20 pm 14:20 Mostly Sunny 50 10 30 -1 47 47 NNE 7 11 30.30 1026 7 11 N/A
2:50 pm 14:50 Mostly Sunny 54 12 28 -2 38 38 NW 8 13 30.27 1025 7 11 N/A
3:20 pm 15:20 Mostly Sunny 54 12 30 -1 41 41 NNE 6 9 30.27 1025 7 11 N/A
3:50 pm 15:50 Mostly Sunny 52 11 28 -2 41 41 NNW 10 17 30.27 1025 7 11 N/A
4:20 pm 16:20 Mostly Sunny 54 12 27 -3 35 35 VRB 6 9 30.27 1025 7 11 N/A
4:50 pm 16:50 Mostly Sunny 54 12 25 -4 33 33 NW 6 9 30.27 1025 7 11 N/A
5:20 pm 17:20 Mostly Sunny 54 12 25 -4 33 33 NNW 7 11 30.24 1024 7 11 N/A
5:50 pm 17:50 Mostly Sunny 54 12 27 -3 35 35 NNW 9 15 30.24 1024 7 11 N/A
6:20 pm 18:20 Mostly Sunny 52 11 28 -2 41 41 NE 9 15 30.24 1024 7 11 N/A
6:50 pm 18:50 Mostly Sunny 50 10 30 -1 47 47 NE 12 19 30.24 1024 7 11 N/A
7:20 pm 19:20 Mostly Sunny 48 9 30 -1 50 50 ENE 10 17 30.24 1024 7 11 N/A
7:50 pm 19:50 Mostly Sunny 48 9 30 -1 50 50 E 8 13 30.24 1024 7 11 N/A
8:20 pm 20:20 Mostly Sunny 46 8 30 -1 53 53 E 6 9 30.24 1024 7 11 N/A
8:50 pm 20:50 Mostly Clear 45 7 30 -1 57 57 E 3 6 30.24 1024 7 11 N/A

Powered by AerisWeather